Tiempo atmosférico en la estación meteorológica de Jabaloyas, Teruel (1430 m.)



Fecha
DESCASC
Temp. máxima en grados centígrados (hora)
DESCASC
Temp. mínima en grados centígrados (hora)
DESCASC
Temp. media en grados centígrados
DESCASC
Racha de viento máxima en m/sg (hora)
DESCASC
Velocidad máxima media en intervalos de 10 minutos(hora)
DESCASC
Precipitaciones diarias en mm
DESCASC
Precipitaciones de 00:00 a 06:00 en mm
DESCASC
Precipitaciones de 06:00 a 12:00 en mm
DESCASC
Precipitaciones de 12:00 a 18:00 en mm
DESCASC
Precipitaciones de 18:00 a 24:00 en mm
DESCASC
22-11-2020 14 (14:20) 3.8 (00:00) 8.9 4.17 (03:20) 3.61 (23:59) 0 0 0 0 0
21-11-2020 10.9 (14:20) 2.1 (01:00) 6.5 8.33 (02:10) 6.11 (02:10) 0 0 0 0 0
20-11-2020 10.6 (14:30) 3 (22:20) 6.8 14.72 (11:00) 11.67 (11:00) 0 0 0 0 0
19-11-2020 14 (15:00) 5.5 (00:00) 9.8 11.67 (10:10) 8.06 (10:10) 0 0 0 0 0
18-11-2020 19.1 (14:00) 10 (00:00) 14.6 9.17 (14:50) 5.56 (21:40) 0 0 0 0 0
17-11-2020 16.6 (13:50) 6.1 (00:00) 11.4 5.28 (03:40) 4.17 (04:10) 0 0 0 0 0
16-11-2020 13 (15:00) 6.9 (00:00) 10 10.83 (00:30) 6.67 (00:30) 0 0 0 0 0
15-11-2020 12 (13:20) 8 (00:00) 10 16.94 (17:00) 8.61 (17:00) 0 0 0 0 0
14-11-2020 10.6 (13:00) 5.6 (00:00) 8.1 8.06 (10:50) 4.72 (22:30) 0 0 0 0 0
13-11-2020 11.7 (15:00) 5.2 (00:00) 8.4 7.78 (09:20) 5.28 (00:20) 0 0 0 0 0
12-11-2020 12.1 (15:00) 5.2 (00:00) 8.7 7.22 (23:59) 4.72 (22:20) 0 0 0 0 0
11-11-2020 12.4 (14:50) 4.6 (00:00) 8.5 7.5 (10:50) 5.83 (07:50) 0 0 0 0 0
10-11-2020 11.6 (15:30) 4.5 (00:00) 8.1 5 (00:10) 3.61 (00:50) 0 0 0 0 0
09-11-2020 10.7 (12:00) 5.3 (00:00) 8 7.78 (06:10) 4.44 (12:30) 0 0 0 0 0
08-11-2020 12 (13:00) 3.4 (00:00) 7.7 9.17 (10:40) 6.11 (10:30) 0 0 0 0 0
07-11-2020 10.5 (00:00) 6.5 (00:00) 8.5 14.44 (04:40) 7.22 (04:40) 15.2 9.4 3.6 2 0.2
06-11-2020 12.6 (12:20) 8.6 (00:00) 10.6 13.89 (13:40) 9.17 (13:40) 0.2 0.2 0 0 0
05-11-2020 8.6 (23:59) 5.2 (00:00) 6.9 10.28 (11:20) 6.39 (10:00) 15.2 0 0 11.6 3.6
04-11-2020 5.4 (22:10) 2.4 (00:00) 3.9 8.33 (23:30) 4.72 (23:30) 23 9.2 6.8 5.2 1.8
03-11-2020 12.7 (00:50) 4.4 (00:00) 8.5 8.61 (20:10) 6.39 (21:10) 6.2 0 0 0.8 5.4
02-11-2020 21 (14:10) 10.3 (00:00) 15.7 7.22 (16:00) 5 (16:30) 0 0 0 0 0
01-11-2020 20.1 (14:50) 10.4 (00:00) 15.3 6.94 (13:20) 4.17 (12:40) 0 0 0 0 0
31-10-2020 20.6 (14:10) 10.9 (00:00) 15.8 6.94 (19:40) 5.28 (20:20) 0 0 0 0 0
30-10-2020 20.6 (14:00) 9.4 (00:00) 15 7.5 (19:50) 5.56 (20:00) 0 0 0 0 0
29-10-2020 17.8 (14:50) 4.4 (00:00) 11.1 9.72 (18:40) 7.5 (18:40) 0 0 0 0 0
28-10-2020 16.5 (13:40) 5.5 (00:00) 11 9.17 (11:30) 6.39 (01:30) 0 0 0 0 0
27-10-2020 12.7 (15:10) 0.9 (00:00) 6.8 10.28 (05:20) 7.22 (18:30) 0 0 0 0 0
26-10-2020 7.2 (14:30) 1.4 (00:00) 4.3 14.17 (11:30) 9.72 (11:30) 1.2 1 0.2 0 0

Gráficas

Temp. máximas Temp. mínimas Temp. medias Precipitaciones Rachas de viento máximas Velocidades máximas media en intervalos de 10 minutos

Datos horarios

Fecha y hora oficial Temperatura (ºC) Velocidad del viento (km/h) Dirección del viento Racha (km/h) Dirección de racha Precipitación (mm) Presión (hPa) Tendencia (hPa) Humedad (%)
2020-11-24 23:00:00 5.8 5 Sudoeste 22 Sudoeste 0 -- -- 40
2020-11-24 22:00:00 4.7 3 Oeste 10 Oeste 0 -- -- 58
2020-11-24 21:00:00 5.3 5 Sur 14 Sudoeste 0 -- -- 56
2020-11-24 20:00:00 5.2 5 Sudoeste 17 Oeste 0 -- -- 50
2020-11-24 19:00:00 6.6 13 Sudoeste 19 Sudoeste 0 -- -- 46
2020-11-24 18:00:00 7.2 5 Sudoeste 15 Sudoeste 0 -- -- 42
2020-11-24 17:00:00 8.9 9 Sudoeste 19 Sur 0 -- -- 39
2020-11-24 16:00:00 9.8 12 Sur 18 Sur 0 -- -- 42
2020-11-24 15:00:00 10.7 9 Sur 19 Sur 0 -- -- 40
2020-11-24 14:00:00 10.9 7 Sur 15 Sudoeste 0 -- -- 36
2020-11-24 13:00:00 10.9 5 Sur 23 Oeste 0 -- -- 36
2020-11-24 12:00:00 9.7 6 Oeste 19 Oeste 0 -- -- 23
2020-11-24 11:00:00 10.5 4 Sudeste 13 Sudeste 0 -- -- 28
2020-11-24 10:00:00 9.8 3 Sudeste 31 Sudoeste 0 -- -- 29
2020-11-24 09:00:00 7.7 14 Sudoeste 26 Sudoeste 0 -- -- 25
2020-11-24 08:00:00 5.3 0 Calma 5 Sudoeste 0 -- -- 30
2020-11-24 07:00:00 5 0 Calma 14 Sudoeste 0 -- -- 32
2020-11-24 06:00:00 5.6 3 Sudoeste 6 Oeste 0 -- -- 30
2020-11-24 05:00:00 5.3 3 Sudeste 6 Sudeste 0 -- -- 37
2020-11-24 04:00:00 5.4 0 Calma 5 Sudoeste 0 -- -- 43
2020-11-24 03:00:00 6.1 0 Calma 6 Sudeste 0 -- -- 41
2020-11-24 02:00:00 6.5 2 Sudoeste 18 Sudoeste 0 -- -- 43
2020-11-24 01:00:00 6.9 0 Calma 14 Sudoeste 0 -- -- 41
2020-11-24 00:00:00 5.4 2 Sudoeste 6 Oeste 0 -- -- 59
2020-11-23 23:00:00 6.1 2 Sudeste 6 Sudeste 0 -- -- 57
2020-11-23 22:00:00 6.1 0 Calma 5 Oeste 0 -- -- 57
2020-11-23 21:00:00 5.4 0 Calma 15 Noroeste 0 -- -- 63
2020-11-23 20:00:00 7.3 4 Noroeste 11 Sur 0 -- -- 58
2020-11-23 19:00:00 6.1 3 Sudeste 8 Sur 0 -- -- 62
2020-11-23 18:00:00 7 5 Sur 14 Sur 0 -- -- 60
2020-11-23 17:00:00 8.8 12 Sur 17 Sur 0 -- -- 56
2020-11-23 16:00:00 10.4 12 Sur 17 Sur 0 -- -- 49
2020-11-23 15:00:00 11.9 12 Sur 17 Sur 0 -- -- 41
2020-11-23 14:00:00 12.1 13 Sudeste 18 Sudeste 0 -- -- 36
2020-11-23 13:00:00 12.1 12 Sudeste 18 Sudeste 0 -- -- 33
2020-11-23 12:00:00 11 11 Sudeste 15 Sudeste 0 -- -- 37
2020-11-23 11:00:00 9.9 9 Sudeste 13 Sudeste 0 -- -- 40
2020-11-23 10:00:00 9.3 5 Sudeste 7 Sudeste 0 -- -- 42
2020-11-23 09:00:00 6.6 0 Calma 10 Oeste 0 -- -- 46
2020-11-23 08:00:00 4.4 8 Noroeste 13 Noroeste 0 -- -- 48
2020-11-23 07:00:00 4.9 10 Noroeste 14 Noroeste 0 -- -- 48
2020-11-23 06:00:00 4.8 10 Noroeste 15 Noroeste 0 -- -- 53
2020-11-23 05:00:00 5 12 Noroeste 15 Noroeste 0 -- -- 53
2020-11-23 04:00:00 5.5 10 Noroeste 15 Oeste 0 -- -- 49
2020-11-23 03:00:00 6 10 Noroeste 14 Oeste 0 -- -- 50
2020-11-23 02:00:00 6.5 10 Noroeste 18 Oeste 0 -- -- 51
2020-11-23 01:00:00 6.7 13 Noroeste 18 Noroeste 0 -- -- 52
2020-11-23 00:00:00 6.6 13 Noroeste 15 Noroeste 0 -- -- 51
2020-11-22 23:00:00 6 9 Noroeste 13 Noroeste 0 -- -- 55
2020-11-22 22:00:00 6.1 8 Oeste 11 Oeste 0 -- -- 56
2020-11-22 21:00:00 6.5 7 Oeste 11 Oeste 0 -- -- 56
2020-11-22 20:00:00 6.8 3 Noroeste 5 Noroeste 0 -- -- 53
2020-11-22 19:00:00 7.2 3 Oeste 5 Noroeste 0 -- -- 49
2020-11-22 18:00:00 6.8 0 Calma 6 Sur 0 -- -- 49
2020-11-22 17:00:00 8.5 5 Sur 7 Sur 0 -- -- 46
2020-11-22 16:00:00 11.5 5 Sur 12 Sudeste 0 -- -- 43
2020-11-22 15:00:00 12.9 8 Sur 15 Sudeste 0 -- -- 41
2020-11-22 14:00:00 13.6 5 Sudeste 9 Este 0 -- -- 31
2020-11-22 13:00:00 12.9 5 Sudeste 11 Sudeste 0 -- -- 30
2020-11-22 12:00:00 12 8 Sudeste 12 Sudeste 0 -- -- 26
2020-11-22 11:00:00 11 3 Sudeste 6 Sudeste 0 -- -- 22
2020-11-22 10:00:00 10.3 3 Sudeste 4 Este 0 -- -- 22
2020-11-22 09:00:00 8.3 3 Sudeste 4 Sudeste 0 -- -- 22
2020-11-22 08:00:00 4.4 0 Calma 4 Sur 0 -- -- 19
2020-11-22 07:00:00 4.6 0 Calma 6 Sur 0 -- -- 20
2020-11-22 06:00:00 4.2 2 Sur 4 Sudoeste 0 -- -- 21
2020-11-22 05:00:00 4.8 3 Noroeste 7 Noroeste 0 -- -- 17
2020-11-22 04:00:00 5.3 3 Oeste 15 Sur 0 -- -- 26
2020-11-22 03:00:00 6.8 11 Sur 15 Sudoeste 0 -- -- 23
2020-11-22 02:00:00 4.7 7 Sur 8 Sur 0 -- -- 39
2020-11-22 01:00:00 4.4 5 Sur 7 Sur 0 -- -- 43
2020-11-22 00:00:00 3.8 5 Noroeste 8 Sur 0 -- -- 50
2020-11-21 23:00:00 4.5 4 Sudeste 8 Sudeste 0 -- -- 47
2020-11-21 22:00:00 3.6 5 Sur 8 Sur 0 -- -- 54
2020-11-21 21:00:00 4.2 0 Calma 6 Sudeste 0 -- -- 51
2020-11-21 20:00:00 5 3 Sudeste 4 Sudeste 0 -- -- 51
2020-11-21 19:00:00 5 0 Calma 15 Sur 0 -- -- 50
2020-11-21 18:00:00 6.2 12 Sur 16 Sur 0 -- -- 54
2020-11-21 17:00:00 7.5 13 Sur 18 Sur 0 -- -- 48
2020-11-21 16:00:00 9.3 12 Sudeste 23 Sudeste 0 -- -- 39
2020-11-21 15:00:00 10.6 13 Sudeste 22 Sudeste 0 -- -- 34
2020-11-21 14:00:00 10.6 13 Sudeste 18 Sudeste 0 -- -- 35
2020-11-21 13:00:00 10.3 13 Sudeste 24 Sudeste 0 -- -- 35
2020-11-21 12:00:00 10.4 13 Sudeste 18 Sudeste 0 -- -- 33
2020-11-21 11:00:00 9.3 3 Sudeste 8 Sudeste 0 -- -- 35
2020-11-21 10:00:00 6 0 Calma 9 Sudeste 0 -- -- 34
2020-11-21 09:00:00 3.7 2 Noroeste 7 Noroeste 0 -- -- 35
2020-11-21 08:00:00 2.4 2 Noroeste 9 Noroeste 0 -- -- 34
2020-11-21 07:00:00 2.9 2 Norte 13 Noroeste 0 -- -- 32
2020-11-21 06:00:00 3 9 Noroeste 17 Noroeste 0 -- -- 31
2020-11-21 05:00:00 3.3 14 Noroeste 22 Oeste 0 -- -- 31
2020-11-21 04:00:00 3.4 15 Noroeste 22 Noroeste 0 -- -- 32
2020-11-21 03:00:00 2.5 10 Noroeste 30 Noroeste 0 -- -- 38
2020-11-21 02:00:00 2.9 21 Noroeste 29 Noroeste 0 -- -- 45
2020-11-21 01:00:00 2.1 13 Noroeste 21 Noroeste 0 -- -- 51
2020-11-21 00:00:00 4.6 18 Noroeste 31 Noroeste 0 -- -- 39
2020-11-20 23:00:00 3.2 19 Noroeste 30 Noroeste 0 -- -- 53
2020-11-20 22:00:00 3.5 15 Noroeste 30 Noroeste 0 -- -- 51
2020-11-20 21:00:00 4.3 20 Noroeste 31 Noroeste 0 -- -- 48
2020-11-20 20:00:00 5 18 Noroeste 32 Noroeste 0 -- -- 49
2020-11-20 19:00:00 6.3 22 Noroeste 31 Noroeste 0 -- -- 45
2020-11-20 18:00:00 6.8 22 Noroeste 31 Noroeste 0 -- -- 44
2020-11-20 17:00:00 8.2 21 Norte 46 Noroeste 0 -- -- 42
2020-11-20 16:00:00 9.6 30 Norte 42 Noroeste 0 -- -- 37
2020-11-20 15:00:00 10.4 30 Noroeste 47 Noroeste 0 -- -- 36
2020-11-20 14:00:00 10.1 24 Noroeste 38 Noroeste 0 -- -- 33
2020-11-20 13:00:00 8.5 25 Norte 35 Norte 0 -- -- 33
2020-11-20 12:00:00 7.4 24 Noroeste 52 Noroeste 0 -- -- 36
2020-11-20 11:00:00 6.5 42 Noroeste 53 Norte 0 -- -- 37
2020-11-20 10:00:00 6.2 28 Noroeste 42 Noroeste 0 -- -- 31
2020-11-20 09:00:00 5.6 24 Norte 43 Noroeste 0 -- -- 30
2020-11-20 08:00:00 4.9 32 Noroeste 39 Noroeste 0 -- -- 34
2020-11-20 07:00:00 5.4 22 Noroeste 37 Noroeste 0 -- -- 34
2020-11-20 06:00:00 5.3 24 Noroeste 36 Noroeste 0 -- -- 38
2020-11-20 05:00:00 5.4 22 Noroeste 34 Noroeste 0 -- -- 42
2020-11-20 04:00:00 4 22 Noroeste 34 Noroeste 0 -- -- 66
2020-11-20 03:00:00 3.9 18 Norte 24 Norte 0 -- -- 75
2020-11-20 02:00:00 5.1 15 Noroeste 24 Noroeste 0 -- -- 67
2020-11-20 01:00:00 5.5 10 Noroeste 19 Noroeste 0 -- -- 80
2020-11-20 00:00:00 5.5 15 Noroeste 24 Noroeste 0 -- -- 92
2020-11-19 23:00:00 6.9 17 Noroeste 27 Norte 0 -- -- 91
2020-11-19 22:00:00 7.9 19 Norte 28 Norte 0 -- -- 89
2020-11-19 21:00:00 8.2 21 Norte 31 Norte 0 -- -- 90
2020-11-19 20:00:00 8.8 17 Norte 30 Norte 0 -- -- 90
2020-11-19 19:00:00 9.4 14 Norte 23 Norte 0 -- -- 87
2020-11-19 18:00:00 10 10 Norte 24 Norte 0 -- -- 84
2020-11-19 17:00:00 12.1 7 Norte 23 Norte 0 -- -- 73
2020-11-19 16:00:00 13.3 12 Norte 23 Norte 0 -- -- 66
2020-11-19 15:00:00 14 12 Nordeste 27 Norte 0 -- -- 62
2020-11-19 14:00:00 13.7 16 Norte 35 Norte 0 -- -- 63
2020-11-19 13:00:00 13.6 19 Norte 39 Norte 0 -- -- 64
2020-11-19 12:00:00 13.2 25 Norte 38 Noroeste 0 -- -- 64
2020-11-19 11:00:00 11.9 26 Norte 42 Norte 0 -- -- 69
2020-11-19 10:00:00 10.8 26 Norte 37 Noroeste 0 -- -- 69
2020-11-19 09:00:00 10.4 23 Noroeste 32 Noroeste 0 -- -- 62
2020-11-19 08:00:00 9.6 22 Noroeste 27 Noroeste 0 -- -- 61
2020-11-19 07:00:00 10.2 19 Noroeste 30 Noroeste 0 -- -- 56
2020-11-19 06:00:00 10.9 22 Noroeste 32 Noroeste 0 -- -- 53
2020-11-19 05:00:00 10.6 21 Noroeste 33 Noroeste 0 -- -- 48
2020-11-19 04:00:00 10.9 22 Noroeste 32 Noroeste 0 -- -- 45
2020-11-19 03:00:00 11.2 19 Noroeste 32 Noroeste 0 -- -- 44
2020-11-19 02:00:00 10.9 18 Noroeste 28 Noroeste 0 -- -- 48
2020-11-19 01:00:00 11.4 18 Noroeste 24 Noroeste 0 -- -- 48
2020-11-19 00:00:00 12.1 19 Noroeste 27 Noroeste 0 -- -- 45
2020-11-18 23:00:00 11.9 18 Noroeste 22 Noroeste 0 -- -- 45
2020-11-18 22:00:00 12.5 16 Noroeste 25 Noroeste 0 -- -- 43
2020-11-18 21:00:00 12.6 14 Noroeste 24 Noroeste 0 -- -- 47
2020-11-18 20:00:00 13.1 18 Noroeste 24 Noroeste 0 -- -- 48
2020-11-18 19:00:00 12.8 12 Noroeste 14 Noroeste 0 -- -- 49
2020-11-18 18:00:00 13.4 10 Noroeste 13 Noroeste 0 -- -- 45
2020-11-18 17:00:00 15.4 8 Norte 24 Norte 0 -- -- 40
2020-11-18 16:00:00 17.9 8 Nordeste 24 Nordeste 0 -- -- 35
2020-11-18 15:00:00 18.8 15 Norte 33 Nordeste 0 -- -- 35
2020-11-18 14:00:00 19.1 11 Norte 28 Noroeste 0 -- -- 33
2020-11-18 13:00:00 18.4 17 Norte 27 Norte 0 -- -- 33
2020-11-18 12:00:00 17.4 14 Norte 25 Noroeste 0 -- -- 36
2020-11-18 11:00:00 16.2 13 Noroeste 21 Noroeste 0 -- -- 38
2020-11-18 10:00:00 14 7 Noroeste 11 Noroeste 0 -- -- 47
2020-11-18 09:00:00 11.5 4 Norte 7 Noroeste 0 -- -- 48
2020-11-18 08:00:00 11 4 Noroeste 17 Noroeste 0 -- -- 47
2020-11-18 07:00:00 11.2 14 Oeste 17 Oeste 0 -- -- 48
2020-11-18 06:00:00 11.4 10 Noroeste 16 Oeste 0 -- -- 45
2020-11-18 05:00:00 12 15 Oeste 20 Oeste 0 -- -- 44
2020-11-18 04:00:00 12.1 15 Noroeste 20 Noroeste 0 -- -- 44
2020-11-18 03:00:00 11.6 16 Oeste 22 Oeste 0 -- -- 46
2020-11-18 02:00:00 11.9 16 Oeste 22 Noroeste 0 -- -- 44
2020-11-18 01:00:00 10.7 4 Oeste 9 Oeste 0 -- -- 53
2020-11-18 00:00:00 10 4 Oeste 7 Sudoeste 0 -- -- 69
2020-11-17 23:00:00 9.5 0 Calma 2 Noroeste 0 -- -- 73
2020-11-17 22:00:00 9.3 0 Calma 6 Sudoeste 0 -- -- 73
2020-11-17 21:00:00 9.9 7 Sudoeste 12 Sudoeste 0 -- -- 70
2020-11-17 20:00:00 10.1 7 Sur 9 Sur 0 -- -- 64
2020-11-17 19:00:00 10.3 4 Sur 11 Sur 0 -- -- 67
2020-11-17 18:00:00 11.7 7 Sur 10 Sur 0 -- -- 63
2020-11-17 17:00:00 13 8 Sur 16 Sudeste 0 -- -- 64
2020-11-17 16:00:00 15.6 10 Sudeste 14 Sudeste 0 -- -- 55
2020-11-17 15:00:00 16.4 6 Sudeste 14 Sudeste 0 -- -- 51
2020-11-17 14:00:00 16.3 10 Sudeste 13 Sudeste 0 -- -- 50
2020-11-17 13:00:00 15.8 3 Norte 9 Este 0 -- -- 39
2020-11-17 12:00:00 14.4 4 Norte 8 Norte 0 -- -- 45
2020-11-17 11:00:00 11.9 5 Norte 8 Nordeste 0 -- -- 58
2020-11-17 10:00:00 11.4 0 Calma 5 Sudeste 0 -- -- 55
2020-11-17 09:00:00 10.1 4 Sudeste 17 Noroeste 0 -- -- 53
2020-11-17 08:00:00 7.4 7 Noroeste 12 Noroeste 0 -- -- 52
2020-11-17 07:00:00 8.2 10 Noroeste 15 Noroeste 0 -- -- 55
2020-11-17 06:00:00 8.4 10 Noroeste 16 Noroeste 0 -- -- 54
2020-11-17 05:00:00 6.9 0 Calma 19 Noroeste 0 -- -- 59
2020-11-17 04:00:00 8.8 15 Noroeste 19 Noroeste 0 -- -- 53
2020-11-17 03:00:00 6.9 3 Noroeste 6 Sur 0 -- -- 73
2020-11-17 02:00:00 7.1 6 Noroeste 11 Noroeste 0 -- -- 84
2020-11-17 01:00:00 7.2 3 Noroeste 9 Noroeste 0 -- -- 85
2020-11-17 00:00:00 7 8 Oeste 12 Oeste 0 -- -- 87
2020-11-16 23:00:00 8 8 Sur 18 Noroeste 0 -- -- 84
2020-11-16 22:00:00 8.3 12 Noroeste 16 Oeste 0 -- -- 84
2020-11-16 21:00:00 7.9 3 Norte 6 Oeste 0 -- -- 91
2020-11-16 20:00:00 8 8 Oeste 10 Oeste 0 -- -- 91
2020-11-16 19:00:00 9.3 3 Norte 6 Nordeste 0 -- -- 86
2020-11-16 18:00:00 10.9 0 Calma 8 Este 0 -- -- 82
2020-11-16 17:00:00 11.7 3 Nordeste 12 Sudeste 0 -- -- 82
2020-11-16 16:00:00 12.1 8 Sudeste 17 Sudeste 0 -- -- 82
2020-11-16 15:00:00 13 6 Sur 17 Sudeste 0 -- -- 78
2020-11-16 14:00:00 12.6 4 Este 14 Nordeste 0 -- -- 77
2020-11-16 13:00:00 12.6 8 Norte 16 Norte 0 -- -- 76
2020-11-16 12:00:00 10.3 9 Norte 17 Norte 0 -- -- 89
2020-11-16 11:00:00 9.6 12 Norte 21 Norte 0 -- -- 92
2020-11-16 10:00:00 9.6 13 Noroeste 19 Noroeste 0 -- -- 90
2020-11-16 09:00:00 9.3 10 Norte 26 Noroeste 0 -- -- 89
2020-11-16 08:00:00 9.9 13 Noroeste 32 Noroeste 0 -- -- 85
2020-11-16 07:00:00 10.1 20 Noroeste 35 Noroeste 0 -- -- 85
2020-11-16 06:00:00 9.8 14 Noroeste 29 Noroeste 0 -- -- 86
2020-11-16 05:00:00 10.7 16 Noroeste 31 Noroeste 0 -- -- 82
2020-11-16 04:00:00 10.7 13 Noroeste 25 Oeste 0 -- -- 83
2020-11-16 03:00:00 11.3 11 Noroeste 35 Oeste 0 -- -- 81
2020-11-16 02:00:00 11.5 18 Noroeste 37 Oeste 0 -- -- 80
2020-11-16 01:00:00 11.6 21 Noroeste 39 Oeste 0 -- -- 79
2020-11-16 00:00:00 11.5 18 Noroeste 45 Noroeste 0 -- -- 81
2020-11-15 23:00:00 11.6 22 Noroeste 48 Oeste 0 -- -- 81
2020-11-15 22:00:00 11.5 11 Oeste 43 Oeste 0 -- -- 82
2020-11-15 21:00:00 11.4 17 Oeste 35 Oeste 0 -- -- 82
2020-11-15 20:00:00 11.6 7 Oeste 42 Noroeste 0 -- -- 81
2020-11-15 19:00:00 11.8 19 Oeste 46 Oeste 0 -- -- 80
2020-11-15 18:00:00 11.7 24 Noroeste 51 Oeste 0 -- -- 82
2020-11-15 17:00:00 11.8 31 Noroeste 61 Noroeste 0 -- -- 80
2020-11-15 16:00:00 11.8 22 Noroeste 42 Oeste 0 -- -- 82
2020-11-15 15:00:00 11.6 19 Noroeste 33 Noroeste 0 -- -- 85
2020-11-15 14:00:00 11.8 21 Noroeste 43 Oeste 0 -- -- 83
2020-11-15 13:00:00 11.9 22 Noroeste 45 Oeste 0 -- -- 83
2020-11-15 12:00:00 11.7 11 Oeste 35 Noroeste 0 -- -- 80
2020-11-15 11:00:00 10.8 12 Noroeste 36 Oeste 0 -- -- 82
2020-11-15 10:00:00 9.7 10 Oeste 26 Oeste 0 -- -- 85
2020-11-15 09:00:00 9.4 4 Sur 25 Noroeste 0 -- -- 86
2020-11-15 08:00:00 8.4 7 Noroeste 22 Noroeste 0 -- -- 87
2020-11-15 07:00:00 8.4 8 Noroeste 31 Noroeste 0 -- -- 85
2020-11-15 06:00:00 8.5 10 Noroeste 21 Oeste 0 -- -- 88
2020-11-15 05:00:00 8.2 4 Sur 10 Oeste 0 -- -- 90
2020-11-15 04:00:00 8.4 5 Oeste 26 Oeste 0 -- -- 86
2020-11-15 03:00:00 8.8 16 Oeste 36 Oeste 0 -- -- 86
2020-11-15 02:00:00 8.5 9 Oeste 24 Oeste 0 -- -- 91
2020-11-15 01:00:00 8.3 3 Norte 24 Oeste 0 -- -- 90
2020-11-15 00:00:00 8 2 Sur 27 Oeste 0 -- -- 90
2020-11-14 23:00:00 8.9 15 Oeste 28 Oeste 0 -- -- 88
2020-11-14 22:00:00 8.8 10 Oeste 26 Oeste 0 -- -- 90
2020-11-14 21:00:00 9 11 Oeste 23 Oeste 0 -- -- 89
2020-11-14 20:00:00 9.1 12 Sudoeste 21 Oeste 0 -- -- 91
2020-11-14 19:00:00 8.9 0 Calma 9 Sur 0 -- -- 93
2020-11-14 18:00:00 9.2 2 Sudoeste 12 Oeste 0 -- -- 91
2020-11-14 17:00:00 9.3 5 Sur 14 Sur 0 -- -- 92
2020-11-14 16:00:00 9.8 4 Sudeste 17 Sur 0 -- -- 89
2020-11-14 15:00:00 10.4 5 Sudoeste 22 Sudoeste 0 -- -- 83
2020-11-14 14:00:00 10.4 5 Oeste 24 Oeste 0 -- -- 84
2020-11-14 13:00:00 10.6 8 Sudoeste 22 Oeste 0 -- -- 80
2020-11-14 12:00:00 9.4 5 Sudeste 19 Sudeste 0 -- -- 89
2020-11-14 11:00:00 9.7 5 Este 29 Oeste 0 -- -- 85
2020-11-14 10:00:00 8 7 Sudeste 12 Sur 0 -- -- 92
2020-11-14 09:00:00 6.7 3 Sur 10 Sudoeste 0 -- -- 95
2020-11-14 08:00:00 6.1 6 Sudoeste 12 Oeste 0 -- -- 97
2020-11-14 07:00:00 6.2 6 Sur 9 Sur 0 -- -- 96
2020-11-14 06:00:00 6.5 3 Sur 8 Sur 0 -- -- 96
2020-11-14 05:00:00 6.2 6 Sur 12 Sur 0 -- -- 95
2020-11-14 04:00:00 6.2 5 Sudoeste 10 Sur 0 -- -- 93
2020-11-14 03:00:00 6.3 5 Sur 10 Sur 0 -- -- 92
2020-11-14 02:00:00 6.3 5 Sur 10 Sudeste 0 -- -- 91
2020-11-14 01:00:00 6.3 6 Sur 11 Sudeste 0 -- -- 90
2020-11-14 00:00:00 6.8 5 Sur 9 Sudoeste 0 -- -- 84
2020-11-13 23:00:00 8.1 4 Sudoeste 22 Sudoeste 0 -- -- 79
2020-11-13 22:00:00 7.8 12 Sudoeste 26 Sudoeste 0 -- -- 80
2020-11-13 21:00:00 8.1 17 Sudoeste 27 Sudoeste 0 -- -- 81
2020-11-13 20:00:00 8.2 10 Sudoeste 21 Sudoeste 0 -- -- 74
2020-11-13 19:00:00 8.2 8 Sudoeste 18 Sudoeste 0 -- -- 73
2020-11-13 18:00:00 8.2 9 Sudoeste 15 Sudoeste 0 -- -- 72
2020-11-13 17:00:00 9.5 7 Sur 18 Sur 0 -- -- 68
2020-11-13 16:00:00 11.1 7 Sur 19 Sur 0 -- -- 62
2020-11-13 15:00:00 11.7 10 Sur 20 Sudeste 0 -- -- 67
2020-11-13 14:00:00 10.8 12 Sudeste 18 Sudeste 0 -- -- 73
2020-11-13 13:00:00 11.2 9 Sur 20 Sur 0 -- -- 65
2020-11-13 12:00:00 11.4 6 Sur 18 Oeste 0 -- -- 67
2020-11-13 11:00:00 9.1 9 Sudoeste 21 Oeste 0 -- -- 73
2020-11-13 10:00:00 8.1 10 Sudoeste 28 Sudoeste 0 -- -- 82
2020-11-13 09:00:00 6.8 14 Sudoeste 23 Sudoeste 0 -- -- 92
2020-11-13 08:00:00 6 4 Sur 13 Sur 0 -- -- 90
2020-11-13 07:00:00 5.5 7 Sur 20 Sur 0 -- -- 87
2020-11-13 06:00:00 5.5 6 Sur 18 Sur 0 -- -- 79
2020-11-13 05:00:00 5.9 8 Sur 20 Sur 0 -- -- 85
2020-11-13 04:00:00 6.2 11 Sur 22 Sur 0 -- -- 87
2020-11-13 03:00:00 6.1 8 Sur 14 Sur 0 -- -- 82
2020-11-13 02:00:00 6.2 8 Sur 21 Sur 0 -- -- 73
2020-11-13 01:00:00 6 12 Sur 28 Sur 0 -- -- 68
2020-11-13 00:00:00 5.9 17 Sur 26 Sur 0 -- -- 81
2020-11-12 23:00:00 6.1 12 Sur 24 Sur 0 -- -- 79
2020-11-12 22:00:00 6 13 Sur 22 Sur 0 -- -- 72
2020-11-12 21:00:00 6.5 12 Sur 21 Sur 0 -- -- 72
2020-11-12 20:00:00 6.9 12 Sur 23 Sur 0 -- -- 75
2020-11-12 19:00:00 7.5 10 Sur 17 Sur 0 -- -- 65
2020-11-12 18:00:00 8.4 8 Sur 14 Sur 0 -- -- 60
2020-11-12 17:00:00 10.2 7 Sur 14 Sudeste 0 -- -- 65
2020-11-12 16:00:00 11.3 10 Sudeste 19 Sudeste 0 -- -- 52
2020-11-12 15:00:00 12.1 12 Sudeste 18 Sudeste 0 -- -- 50
2020-11-12 14:00:00 11.9 9 Sudeste 15 Sudeste 0 -- -- 51
2020-11-12 13:00:00 10.7 2 Este 5 Nordeste 0 -- -- 56
2020-11-12 12:00:00 10.2 2 Nordeste 6 Norte 0 -- -- 58
2020-11-12 11:00:00 8.8 2 Norte 11 Noroeste 0 -- -- 67
2020-11-12 10:00:00 7.6 7 Noroeste 13 Oeste 0 -- -- 69
2020-11-12 09:00:00 6.8 8 Noroeste 15 Noroeste 0 -- -- 67
2020-11-12 08:00:00 6.3 9 Noroeste 13 Noroeste 0 -- -- 61
2020-11-12 07:00:00 5.8 6 Noroeste 8 Noroeste 0 -- -- 59
2020-11-12 06:00:00 6 0 Calma 8 Oeste 0 -- -- 54
2020-11-12 05:00:00 6 8 Oeste 10 Oeste 0 -- -- 53
2020-11-12 04:00:00 5.9 4 Oeste 7 Oeste 0 -- -- 50
2020-11-12 03:00:00 5.4 2 Sur 8 Sur 0 -- -- 58
2020-11-12 02:00:00 5.3 4 Sur 8 Sur 0 -- -- 65
2020-11-12 01:00:00 6.6 4 Oeste 8 Noroeste 0 -- -- 57
2020-11-12 00:00:00 6.4 3 Sur 14 Oeste 0 -- -- 56
2020-11-11 23:00:00 6.1 0 Calma 11 Oeste 0 -- -- 59
2020-11-11 22:00:00 7.1 8 Oeste 18 Sudoeste 0 -- -- 64
2020-11-11 21:00:00 7.5 11 Oeste 23 Sudoeste 0 -- -- 73
2020-11-11 20:00:00 7.6 10 Oeste 19 Oeste 0 -- -- 74
2020-11-11 19:00:00 8.4 9 Sudoeste 15 Sudoeste 0 -- -- 68
2020-11-11 18:00:00 8.6 5 Sudoeste 12 Sur 0 -- -- 66
2020-11-11 17:00:00 9.9 7 Sur 16 Sur 0 -- -- 65
2020-11-11 16:00:00 11.9 10 Sur 21 Sur 0 -- -- 59
2020-11-11 15:00:00 12.4 11 Sur 23 Sur 0 -- -- 54
2020-11-11 14:00:00 12.3 12 Sur 27 Sur 0 -- -- 59
2020-11-11 13:00:00 11.6 15 Sur 27 Sur 0 -- -- 60
2020-11-11 12:00:00 11 15 Sur 27 Sur 0 -- -- 61
2020-11-11 11:00:00 10 18 Sur 27 Sur 0 -- -- 68
2020-11-11 10:00:00 9.6 4 Sudeste 14 Sudoeste 0 -- -- 74
2020-11-11 09:00:00 7.9 3 Este 24 Sudoeste 0 -- -- 81
2020-11-11 08:00:00 6.2 20 Oeste 26 Sudoeste 0 -- -- 82
2020-11-11 07:00:00 6.7 14 Sudoeste 20 Oeste 0 -- -- 77
2020-11-11 06:00:00 4.9 2 Sudoeste 8 Oeste 0 -- -- 88
2020-11-11 05:00:00 4.9 2 Sudeste 6 Sur 0 -- -- 87
2020-11-11 04:00:00 5.5 4 Sudeste 6 Sudoeste 0 -- -- 84
2020-11-11 03:00:00 5.4 0 Calma 3 Sudoeste 0 -- -- 84
2020-11-11 02:00:00 4.9 0 Calma 5 Sur 0 -- -- 87
2020-11-11 01:00:00 5.1 0 Calma 3 Sudoeste 0 -- -- 86
2020-11-11 00:00:00 4.9 0 Calma 3 Oeste 0 -- -- 85
2020-11-10 23:00:00 5.5 3 Sur 6 Sur 0 -- -- 82
2020-11-10 22:00:00 6.3 2 Oeste 8 Oeste 0 -- -- 77
2020-11-10 21:00:00 6.4 5 Oeste 8 Noroeste 0 -- -- 72
2020-11-10 20:00:00 6.6 5 Oeste 8 Oeste 0 -- -- 70
2020-11-10 19:00:00 6.8 5 Noroeste 7 Noroeste 0 -- -- 79
2020-11-10 18:00:00 7.8 4 Noroeste 8 Nordeste 0 -- -- 74
2020-11-10 17:00:00 9.5 5 Nordeste 13 Nordeste 0 -- -- 69
2020-11-10 16:00:00 11.4 6 Nordeste 13 Este 0 -- -- 60
2020-11-10 15:00:00 10.6 6 Norte 12 Norte 0 -- -- 61
2020-11-10 14:00:00 11.4 4 Este 9 Nordeste 0 -- -- 58
2020-11-10 13:00:00 9.9 4 Nordeste 9 Nordeste 0 -- -- 67
2020-11-10 12:00:00 9.7 6 Nordeste 12 Nordeste 0 -- -- 70
2020-11-10 11:00:00 8.6 6 Nordeste 15 Noroeste 0 -- -- 78
2020-11-10 10:00:00 7 10 Norte 17 Noroeste 0 -- -- 82
2020-11-10 09:00:00 6.2 13 Noroeste 18 Noroeste 0 -- -- 84
2020-11-10 08:00:00 4.6 8 Noroeste 13 Noroeste 0 -- -- 86
2020-11-10 07:00:00 4.9 10 Noroeste 14 Noroeste 0 -- -- 85
2020-11-10 06:00:00 5.2 10 Noroeste 14 Noroeste 0 -- -- 84
2020-11-10 05:00:00 5.5 11 Noroeste 16 Noroeste 0 -- -- 86
2020-11-10 04:00:00 5.4 9 Noroeste 15 Noroeste 0 -- -- 87
2020-11-10 03:00:00 5.8 10 Noroeste 16 Noroeste 0 -- -- 86
2020-11-10 02:00:00 6.1 12 Noroeste 17 Oeste 0 -- -- 83
2020-11-10 01:00:00 6.1 13 Noroeste 18 Oeste 0 -- -- 82
2020-11-10 00:00:00 6.6 15 Oeste 21 Oeste 0 -- -- 82
2020-11-09 23:00:00 6.4 13 Noroeste 15 Noroeste 0 -- -- 81
2020-11-09 22:00:00 7.9 11 Oeste 16 Oeste 0 -- -- 73
2020-11-09 21:00:00 7.3 7 Noroeste 13 Noroeste 0 -- -- 81
2020-11-09 20:00:00 7.4 2 Noroeste 13 Noroeste 0 -- -- 83
2020-11-09 19:00:00 7.5 6 Norte 17 Oeste 0 -- -- 82
2020-11-09 18:00:00 8.7 7 Oeste 14 Oeste 0 -- -- 74
2020-11-09 17:00:00 10.2 10 Noroeste 18 Oeste 0 -- -- 68
2020-11-09 16:00:00 10.4 7 Noroeste 13 Noroeste 0 -- -- 73
2020-11-09 15:00:00 10.4 4 Oeste 14 Oeste 0 -- -- 73
2020-11-09 14:00:00 10.3 7 Oeste 20 Sudoeste 0 -- -- 74
2020-11-09 13:00:00 10 13 Oeste 28 Sudoeste 0 -- -- 78
2020-11-09 12:00:00 10.7 10 Sudoeste 28 Sudoeste 0 -- -- 74
2020-11-09 11:00:00 9.4 6 Sur 28 Oeste 0 -- -- 80
2020-11-09 10:00:00 9.1 7 Sudoeste 22 Oeste 0 -- -- 79
2020-11-09 09:00:00 7.3 5 Sudeste 14 Este 0 -- -- 87
2020-11-09 08:00:00 6.9 8 Oeste 27 Oeste 0 -- -- 84
2020-11-09 07:00:00 6.8 5 Oeste 28 Oeste 0 -- -- 87
2020-11-09 06:00:00 6.8 10 Oeste 20 Oeste 0 -- -- 87
2020-11-09 05:00:00 6.4 8 Oeste 22 Oeste 0 -- -- 89
2020-11-09 04:00:00 5.5 2 Este 7 Sudeste 0 -- -- 93
2020-11-09 03:00:00 5.4 0 Calma 6 Sudeste 0 -- -- 92
2020-11-09 02:00:00 5.8 4 Sudeste 15 Sudeste 0 -- -- 91
2020-11-09 01:00:00 6.6 6 Sur 15 Sur 0 -- -- 89
2020-11-09 00:00:00 5.9 4 Sudeste 13 Sur 0 -- -- 87
2020-11-08 23:00:00 5.8 7 Sur 10 Sur 0 -- -- 85
2020-11-08 22:00:00 7.2 3 Sudeste 17 Sudoeste 0 -- -- 80
2020-11-08 21:00:00 7.7 6 Sudeste 25 Sur 0 -- -- 77
2020-11-08 20:00:00 8 9 Sur 27 Sudoeste 0 -- -- 75
2020-11-08 19:00:00 8.1 10 Sur 18 Sur 0 -- -- 74
2020-11-08 18:00:00 8.9 6 Sur 17 Sudoeste 0 -- -- 73
2020-11-08 17:00:00 9.9 9 Sur 23 Sur 0 -- -- 66
2020-11-08 16:00:00 10.8 10 Sur 24 Sur 0 -- -- 60
2020-11-08 15:00:00 11.5 11 Sur 27 Oeste 0 -- -- 59
2020-11-08 14:00:00 11.9 11 Oeste 27 Sur 0 -- -- 48
2020-11-08 13:00:00 12 11 Sur 19 Sur 0 -- -- 52
2020-11-08 12:00:00 10.5 9 Sudoeste 30 Oeste 0 -- -- 55
2020-11-08 11:00:00 8.8 19 Oeste 33 Oeste 0 -- -- 68
2020-11-08 10:00:00 8.2 14 Sudoeste 26 Sudoeste 0 -- -- 74
2020-11-08 09:00:00 6.8 5 Sudeste 8 Sudeste 0 -- -- 84
2020-11-08 08:00:00 4.5 3 Sur 5 Sur 0 -- -- 91
2020-11-08 07:00:00 3.4 4 Sur 5 Sur 0 -- -- 91
2020-11-08 06:00:00 3.5 2 Sudeste 3 Sudoeste 0 -- -- 91
2020-11-08 05:00:00 3.8 0 Calma 7 Oeste 0 -- -- 91
2020-11-08 04:00:00 4.5 3 Noroeste 7 Oeste 0 -- -- 90
2020-11-08 03:00:00 4.5 4 Oeste 9 Oeste 0 -- -- 90
2020-11-08 02:00:00 5 9 Oeste 12 Oeste 0 -- -- 90
2020-11-08 01:00:00 5.2 2 Noroeste 11 Oeste 0 -- -- 90
2020-11-08 00:00:00 6.7 4 Norte 18 Noroeste 0 -- -- 88
2020-11-07 23:00:00 7.3 7 Oeste 15 Sudoeste 0 -- -- 88
2020-11-07 22:00:00 7 3 Sur 12 Sudeste 0 -- -- 94
2020-11-07 21:00:00 7 6 Sudeste 18 Sudoeste 0 -- -- 96
2020-11-07 20:00:00 7.1 3 Sur 16 Sudeste 0.2 -- -- 95
2020-11-07 19:00:00 7.3 4 Sudoeste 22 Sudoeste 0 -- -- 92
2020-11-07 18:00:00 7.3 8 Oeste 25 Sudoeste 0 -- -- 88
2020-11-07 17:00:00 7.6 8 Oeste 31 Sudoeste 0.2 -- -- 87
2020-11-07 16:00:00 8.1 9 Oeste 30 Sudoeste 0.4 -- -- 89
2020-11-07 15:00:00 8.4 8 Oeste 26 Oeste 0 -- -- 86
2020-11-07 14:00:00 8 10 Sur 32 Sudoeste 0.2 -- -- 89
2020-11-07 13:00:00 7.4 8 Sudoeste 31 Sur 1.2 -- -- 89
2020-11-07 12:00:00 7.4 9 Sur 36 Sur 0.8 -- -- 90
2020-11-07 11:00:00 8 8 Sur 28 Oeste 0 -- -- 87
2020-11-07 10:00:00 7.9 7 Oeste 26 Noroeste 0 -- -- 85
2020-11-07 09:00:00 7 5 Sudeste 20 Oeste 0 -- -- 95
2020-11-07 08:00:00 7.2 9 Sudoeste 41 Oeste 1.6 -- -- 89
2020-11-07 07:00:00 7.2 10 Sur 33 Sur 1.2 -- -- 94
2020-11-07 06:00:00 8 8 Sur 47 Oeste 1.6 -- -- 86
2020-11-07 05:00:00 6.8 22 Oeste 52 Oeste 7 -- -- 91
2020-11-07 04:00:00 10 18 Sur 33 Sur 0.6 -- -- 95
2020-11-07 03:00:00 10 20 Sur 36 Sur 0.2 -- -- 94
2020-11-07 02:00:00 10.2 21 Sur 37 Sur 0 -- -- 89
2020-11-07 01:00:00 10.3 22 Sur 37 Sur 0 -- -- 87
2020-11-07 00:00:00 10.5 20 Sur 42 Sur 0 -- -- 84
2020-11-06 23:00:00 10.1 17 Sur 33 Sur 0 -- -- 89
2020-11-06 22:00:00 10.3 22 Sur 37 Sur 0 -- -- 87
2020-11-06 21:00:00 10.2 27 Sudeste 38 Sudeste 0 -- -- 87
2020-11-06 20:00:00 10.2 20 Sudeste 40 Sudeste 0 -- -- 88
2020-11-06 19:00:00 10.3 23 Sur 39 Sudeste 0 -- -- 87
2020-11-06 18:00:00 10.6 19 Sudeste 49 Sudeste 0 -- -- 86
2020-11-06 17:00:00 11.5 29 Sudeste 44 Sudeste 0 -- -- 80
2020-11-06 16:00:00 12.1 21 Sudeste 39 Sudeste 0 -- -- 80
2020-11-06 15:00:00 11.9 26 Sudeste 50 Sudeste 0 -- -- 82
2020-11-06 14:00:00 11.9 29 Sudeste 50 Sudeste 0 -- -- 82
2020-11-06 13:00:00 11.7 25 Sudeste 48 Sudeste 0 -- -- 85
2020-11-06 12:00:00 12.3 16 Sudeste 31 Sudeste 0 -- -- 84
2020-11-06 11:00:00 12.2 14 Sudeste 23 Sudeste 0 -- -- 83
2020-11-06 10:00:00 10.8 10 Sudeste 19 Sudeste 0 -- -- 90
2020-11-06 09:00:00 9.7 9 Sur 16 Sur 0 -- -- 90
2020-11-06 08:00:00 9.2 12 Sur 18 Sur 0 -- -- 92
2020-11-06 07:00:00 9.2 13 Sur 22 Sur 0 -- -- 94
2020-11-06 06:00:00 9.3 15 Sur 31 Sur 0 -- -- 94
2020-11-06 05:00:00 9.4 17 Sur 30 Sur 0.2 -- -- 95
2020-11-06 04:00:00 9.2 17 Sur 30 Sur 0 -- -- 95
2020-11-06 03:00:00 9.1 19 Sur 30 Sur 0 -- -- 95
2020-11-06 02:00:00 8.9 16 Sudeste 26 Sur 0 -- -- 96
2020-11-06 01:00:00 8.8 12 Sur 28 Sudeste 0 -- -- 95
2020-11-06 00:00:00 8.6 15 Sur 26 Sur 0 -- -- 95
2020-11-05 23:00:00 8 12 Sudeste 22 Sur 0 -- -- 96
2020-11-05 22:00:00 8 13 Sur 28 Sudeste 0 -- -- 96
2020-11-05 21:00:00 7.7 6 Sur 14 Sur 0 -- -- 97
2020-11-05 20:00:00 7.7 11 Sur 27 Sudeste 2.4 -- -- 98
2020-11-05 19:00:00 7.7 10 Sudeste 26 Sudeste 1.2 -- -- 97
2020-11-05 18:00:00 7.8 13 Sudeste 25 Sudeste 0.6 -- -- 97
2020-11-05 17:00:00 7.8 11 Este 20 Sudeste 1.4 -- -- 97
2020-11-05 16:00:00 7.7 10 Sudeste 27 Sudeste 4.6 -- -- 97
2020-11-05 15:00:00 7.9 16 Sudeste 27 Sudeste 0.2 -- -- 97
2020-11-05 14:00:00 7.7 14 Sudeste 26 Sudeste 4.6 -- -- 97
2020-11-05 13:00:00 8.2 20 Sudeste 32 Sudeste 0.2 -- -- 94
2020-11-05 12:00:00 8.3 18 Sudeste 37 Sudeste 0 -- -- 93
2020-11-05 11:00:00 7.9 23 Sudeste 34 Sudeste 0 -- -- 93
2020-11-05 10:00:00 7.1 23 Sudeste 36 Sudeste 0 -- -- 95
2020-11-05 09:00:00 6.2 17 Sudeste 26 Sudeste 0 -- -- 96
2020-11-05 08:00:00 5.9 13 Sudeste 26 Sudeste 0 -- -- 96
2020-11-05 07:00:00 5.8 10 Este 22 Sudeste 0 -- -- 96
2020-11-05 06:00:00 5.9 14 Sudeste 27 Este 0 -- -- 95
2020-11-05 05:00:00 5.8 17 Sudeste 27 Sudeste 0 -- -- 94
2020-11-05 04:00:00 5.4 14 Sudeste 31 Este 0 -- -- 94
2020-11-05 03:00:00 5.7 22 Este 36 Sudeste 0 -- -- 96
2020-11-05 02:00:00 5.3 13 Este 27 Sudeste 0 -- -- 98
2020-11-05 01:00:00 5.4 13 Sudeste 30 Sudeste 0 -- -- 98
2020-11-05 00:00:00 5.4 15 Sudeste 30 Sudeste 0 -- -- 98
2020-11-04 23:00:00 5.4 13 Este 29 Sudeste 0 -- -- 97
2020-11-04 22:00:00 5.3 11 Sudeste 19 Sudeste 0 -- -- 98
2020-11-04 21:00:00 5 6 Sudeste 12 Sudeste 1.6 -- -- 97
2020-11-04 20:00:00 4.5 0 Calma 4 Nordeste 0.2 -- -- 97
2020-11-04 19:00:00 4.1 0 Calma 6 Oeste 0 -- -- 97
2020-11-04 18:00:00 4 3 Noroeste 4 Noroeste 0.2 -- -- 97
2020-11-04 17:00:00 4.1 2 Nordeste 6 Nordeste 1 -- -- 96
2020-11-04 16:00:00 4.2 2 Norte 9 Sudeste 0.6 -- -- 96
2020-11-04 15:00:00 4.4 6 Este 18 Este 0.2 -- -- 97
2020-11-04 14:00:00 4.3 5 Este 12 Sudeste 1.2 -- -- 98
2020-11-04 13:00:00 3.9 5 Sudeste 13 Sudeste 2 -- -- 98
2020-11-04 12:00:00 3.4 7 Sudeste 12 Sudeste 2.6 -- -- 98
2020-11-04 11:00:00 2.9 2 Sudeste 6 Noroeste 0.4 -- -- 98
2020-11-04 10:00:00 2.5 5 Noroeste 10 Norte 0 -- -- 98
2020-11-04 09:00:00 2.5 6 Norte 9 Norte 0 -- -- 98
2020-11-04 08:00:00 2.6 5 Noroeste 13 Norte 0.8 -- -- 97
2020-11-04 07:00:00 3 2 Este 8 Noroeste 3 -- -- 97
2020-11-04 06:00:00 3.3 0 Calma 9 Noroeste 3.6 -- -- 97
2020-11-04 05:00:00 3.4 6 Norte 12 Noroeste 3.2 -- -- 97
2020-11-04 04:00:00 3.4 10 Norte 12 Norte 0.6 -- -- 97
2020-11-04 03:00:00 3.9 6 Noroeste 13 Norte 0.6 -- -- 97
2020-11-04 02:00:00 4.2 5 Noroeste 9 Norte 0.4 -- -- 97
2020-11-04 01:00:00 4.5 3 Nordeste 6 Norte 0.8 -- -- 96
2020-11-04 00:00:00 4.5 6 Norte 21 Noroeste 0 -- -- 96
2020-11-03 23:00:00 4.4 12 Noroeste 24 Noroeste 1 -- -- 96
2020-11-03 22:00:00 4.5 18 Noroeste 31 Noroeste 1.4 -- -- 95
2020-11-03 21:00:00 4.5 20 Noroeste 31 Noroeste 2 -- -- 95
2020-11-03 20:00:00 4.7 21 Noroeste 31 Noroeste 0.2 -- -- 95
2020-11-03 19:00:00 5.1 19 Noroeste 26 Noroeste 0.8 -- -- 94
2020-11-03 18:00:00 6.1 15 Noroeste 26 Noroeste 0.8 -- -- 95
2020-11-03 17:00:00 6.9 15 Norte 24 Norte 0 -- -- 93
2020-11-03 16:00:00 9.2 13 Norte 19 Norte 0 -- -- 92
2020-11-03 15:00:00 9.7 10 Norte 15 Norte 0 -- -- 91
2020-11-03 14:00:00 9.7 12 Noroeste 20 Noroeste 0 -- -- 90
2020-11-03 13:00:00 11.3 12 Norte 19 Norte 0 -- -- 83
2020-11-03 12:00:00 12.1 9 Nordeste 14 Nordeste 0 -- -- 79
2020-11-03 11:00:00 12.7 9 Norte 15 Noroeste 0 -- -- 77
2020-11-03 10:00:00 11 10 Norte 13 Noroeste 0 -- -- 86
2020-11-03 09:00:00 11.2 9 Noroeste 16 Norte 0 -- -- 82
2020-11-03 08:00:00 10.1 5 Noroeste 8 Noroeste 0 -- -- 77
2020-11-03 07:00:00 10.4 4 Norte 9 Noroeste 0 -- -- 76
2020-11-03 06:00:00 11 5 Noroeste 8 Noroeste 0 -- -- 71
2020-11-03 05:00:00 11.4 0 Calma 7 Noroeste 0 -- -- 68
2020-11-03 04:00:00 11.8 3 Noroeste 6 Noroeste 0 -- -- 68
2020-11-03 03:00:00 12.5 4 Noroeste 11 Oeste 0 -- -- 61
2020-11-03 02:00:00 12.7 9 Noroeste 13 Noroeste 0 -- -- 71
2020-11-03 01:00:00 12.7 9 Noroeste 12 Noroeste 0 -- -- 71
2020-11-03 00:00:00 12.3 9 Noroeste 15 Noroeste 0 -- -- 67
2020-11-02 23:00:00 12.7 11 Noroeste 19 Noroeste 0 -- -- 68
2020-11-02 22:00:00 12.7 13 Noroeste 17 Noroeste 0 -- -- 68
2020-11-02 21:00:00 13.6 11 Noroeste 17 Oeste 0 -- -- 60
2020-11-02 20:00:00 14.6 3 Noroeste 15 Noroeste 0 -- -- 51
2020-11-02 19:00:00 14.8 13 Noroeste 24 Oeste 0 -- -- 43
2020-11-02 18:00:00 17.3 15 Oeste 24 Oeste 0 -- -- 46
2020-11-02 17:00:00 18.6 6 Sur 26 Sudeste 0 -- -- 39
2020-11-02 16:00:00 20.2 14 Sudeste 26 Sudeste 0 -- -- 32
2020-11-02 15:00:00 21 9 Sur 20 Sur 0 -- -- 29
2020-11-02 14:00:00 20.9 9 Sudeste 17 Sudeste 0 -- -- 29
2020-11-02 13:00:00 20.4 11 Sudeste 16 Sudeste 0 -- -- 29
2020-11-02 12:00:00 18.9 9 Sudeste 14 Sudeste 0 -- -- 29
2020-11-02 11:00:00 17.5 8 Sudeste 16 Sudeste 0 -- -- 30
2020-11-02 10:00:00 15.9 12 Sudeste 15 Sudeste 0 -- -- 34
2020-11-02 09:00:00 15.1 2 Este 4 Sudeste 0 -- -- 34
2020-11-02 08:00:00 11.3 2 Sur 4 Sur 0 -- -- 40
2020-11-02 07:00:00 10.6 0 Calma 4 Noroeste 0 -- -- 39
2020-11-02 06:00:00 10.3 0 Calma 5 Sudeste 0 -- -- 39
2020-11-02 05:00:00 10.8 0 Calma 13 Nordeste 0 -- -- 36
2020-11-02 04:00:00 11.2 0 Calma 6 Noroeste 0 -- -- 37
2020-11-02 03:00:00 11.8 0 Calma 9 Oeste 0 -- -- 37
2020-11-02 02:00:00 11.6 2 Noroeste 15 Sudoeste 0 -- -- 40
2020-11-02 01:00:00 12.3 10 Sur 14 Sudoeste 0 -- -- 52
2020-11-02 00:00:00 12.4 7 Sur 12 Sur 0 -- -- 52
2020-11-01 23:00:00 12.7 9 Sur 13 Sudoeste 0 -- -- 50
2020-11-01 22:00:00 13.2 10 Sur 13 Sur 0 -- -- 43
2020-11-01 21:00:00 13.3 4 Sur 15 Sudoeste 0 -- -- 34
2020-11-01 20:00:00 14.5 11 Sudoeste 17 Oeste 0 -- -- 41
2020-11-01 19:00:00 14.8 12 Oeste 17 Oeste 0 -- -- 41
2020-11-01 18:00:00 15.9 10 Oeste 15 Noroeste 0 -- -- 36
2020-11-01 17:00:00 17.7 9 Oeste 17 Noroeste 0 -- -- 32
2020-11-01 16:00:00 19.8 6 Noroeste 22 Noroeste 0 -- -- 28
2020-11-01 15:00:00 20.1 12 Noroeste 22 Noroeste 0 -- -- 29
2020-11-01 14:00:00 19.8 10 Oeste 25 Oeste 0 -- -- 31
2020-11-01 13:00:00 19.5 11 Oeste 23 Noroeste 0 -- -- 30
2020-11-01 12:00:00 18.8 13 Noroeste 24 Oeste 0 -- -- 31
2020-11-01 11:00:00 17.7 8 Noroeste 21 Noroeste 0 -- -- 35
2020-11-01 10:00:00 16.8 11 Noroeste 18 Noroeste 0 -- -- 36
2020-11-01 09:00:00 15.4 10 Oeste 25 Oeste 0 -- -- 34
2020-11-01 08:00:00 11.6 4 Oeste 6 Oeste 0 -- -- 45
2020-11-01 07:00:00 10.9 4 Sur 6 Sur 0 -- -- 51
2020-11-01 06:00:00 11.2 4 Sur 7 Sur 0 -- -- 49
2020-11-01 05:00:00 11.4 5 Norte 13 Noroeste 0 -- -- 43
2020-11-01 04:00:00 11.2 0 Calma 8 Sudeste 0 -- -- 45
2020-11-01 03:00:00 12.4 0 Calma 7 Noroeste 0 -- -- 42
2020-11-01 02:00:00 10.7 0 Calma 4 Sudoeste 0 -- -- 55
2020-11-01 01:00:00 11.3 4 Noroeste 9 Noroeste 0 -- -- 58
2020-11-01 00:00:00 11.4 5 Sur 12 Oeste 0 -- -- 57
2020-10-31 23:00:00 12.8 14 Oeste 23 Oeste 0 -- -- 54
2020-10-31 22:00:00 12.4 6 Noroeste 14 Noroeste 0 -- -- 54
2020-10-31 21:00:00 13.7 10 Oeste 24 Noroeste 0 -- -- 47
2020-10-31 20:00:00 13.2 18 Oeste 25 Noroeste 0 -- -- 50
2020-10-31 19:00:00 13.7 11 Noroeste 18 Noroeste 0 -- -- 47
2020-10-31 18:00:00 15.9 15 Noroeste 21 Noroeste 0 -- -- 40
2020-10-31 17:00:00 18.2 10 Noroeste 17 Noroeste 0 -- -- 32
2020-10-31 16:00:00 19.9 10 Noroeste 17 Noroeste 0 -- -- 30
2020-10-31 15:00:00 20.4 10 Noroeste 22 Noroeste 0 -- -- 29
2020-10-31 14:00:00 20.5 9 Oeste 24 Noroeste 0 -- -- 29
2020-10-31 13:00:00 19.8 5 Norte 16 Oeste 0 -- -- 30
2020-10-31 12:00:00 19.1 9 Noroeste 19 Oeste 0 -- -- 31
2020-10-31 11:00:00 18 9 Norte 14 Norte 0 -- -- 33
2020-10-31 10:00:00 16.2 3 Norte 4 Norte 0 -- -- 33
2020-10-31 09:00:00 14.5 0 Calma 5 Noroeste 0 -- -- 28
2020-10-31 08:00:00 12.2 3 Noroeste 4 Oeste 0 -- -- 31
2020-10-31 07:00:00 11.4 2 Oeste 6 Noroeste 0 -- -- 29
2020-10-31 06:00:00 11.5 3 Noroeste 9 Oeste 0 -- -- 28
2020-10-31 05:00:00 11.2 0 Calma 4 Noroeste 0 -- -- 39
2020-10-31 04:00:00 10.9 2 Oeste 5 Sudoeste 0 -- -- 39
2020-10-31 03:00:00 11.9 3 Sudeste 9 Oeste 0 -- -- 38
2020-10-31 02:00:00 11.8 3 Oeste 7 Sudoeste 0 -- -- 39
2020-10-31 01:00:00 11.7 0 Calma 5 Sur 0 -- -- 45
2020-10-31 00:00:00 11.8 0 Calma 6 Sudoeste 0 -- -- 45
2020-10-30 23:00:00 12.9 8 Sudoeste 13 Sudoeste 0 -- -- 37
2020-10-30 22:00:00 12.1 5 Sur 9 Sur 0 -- -- 47
2020-10-30 21:00:00 13.7 6 Sudoeste 26 Sudoeste 0 -- -- 48
2020-10-30 20:00:00 15.3 20 Sudoeste 27 Sudoeste 0 -- -- 44
2020-10-30 19:00:00 15.5 17 Sudoeste 20 Sudoeste 0 -- -- 39
2020-10-30 18:00:00 16.3 11 Sudoeste 16 Sudoeste 0 -- -- 31
2020-10-30 17:00:00 18 8 Sudoeste 16 Sudeste 0 -- -- 26
2020-10-30 16:00:00 19.9 13 Sudeste 23 Sudeste 0 -- -- 26
2020-10-30 15:00:00 20.6 12 Sudeste 24 Sudeste 0 -- -- 20
2020-10-30 14:00:00 20.6 14 Sudeste 22 Sudeste 0 -- -- 18
2020-10-30 13:00:00 20 12 Sur 18 Sudeste 0 -- -- 18
2020-10-30 12:00:00 18.9 10 Sudeste 15 Sudeste 0 -- -- 15
2020-10-30 11:00:00 18.1 8 Sudeste 13 Sudeste 0 -- -- 15
2020-10-30 10:00:00 17.9 3 Sudeste 6 Sudeste 0 -- -- 16
2020-10-30 09:00:00 15.1 4 Noroeste 8 Noroeste 0 -- -- 17
2020-10-30 08:00:00 11.6 2 Noroeste 7 Noroeste 0 -- -- 18
2020-10-30 07:00:00 9.8 2 Sur 14 Oeste 0 -- -- 20
2020-10-30 06:00:00 9.8 2 Oeste 10 Oeste 0 -- -- 20
2020-10-30 05:00:00 12.3 4 Sudoeste 22 Oeste 0 -- -- 18
2020-10-30 04:00:00 11.8 3 Sur 10 Oeste 0 -- -- 16
2020-10-30 03:00:00 11.1 3 Sur 6 Sudoeste 0 -- -- 17
2020-10-30 02:00:00 10.8 0 Calma 8 Sur 0 -- -- 17
2020-10-30 01:00:00 11.7 4 Sur 13 Sudoeste 0 -- -- 12
2020-10-30 00:00:00 10.8 5 Oeste 8 Oeste 0 -- -- 17
2020-10-29 23:00:00 10.1 2 Sudoeste 7 Sudeste 0 -- -- 36
2020-10-29 22:00:00 10.3 0 Calma 5 Sur 0 -- -- 42
2020-10-29 21:00:00 11.1 0 Calma 5 Sudoeste 0 -- -- 37
2020-10-29 20:00:00 11.8 4 Oeste 25 Sudoeste 0 -- -- 48
2020-10-29 19:00:00 12.9 9 Sudoeste 35 Sudoeste 0 -- -- 51
2020-10-29 18:00:00 14.5 22 Oeste 30 Oeste 0 -- -- 45
2020-10-29 17:00:00 16.1 12 Sudoeste 22 Sudoeste 0 -- -- 39
2020-10-29 16:00:00 17.3 11 Sur 21 Sur 0 -- -- 38
2020-10-29 15:00:00 17.8 13 Sur 21 Sur 0 -- -- 39
2020-10-29 14:00:00 16.9 15 Sur 27 Sur 0 -- -- 39
2020-10-29 13:00:00 15.1 14 Sudeste 26 Sudeste 0 -- -- 62
2020-10-29 12:00:00 13.1 14 Sudeste 31 Sur 0 -- -- 72
2020-10-29 11:00:00 9.2 12 Sudeste 18 Sudeste 0 -- -- 98
2020-10-29 10:00:00 6.6 6 Este 10 Sudeste 0 -- -- 98
2020-10-29 09:00:00 5.1 3 Noroeste 8 Nordeste 0 -- -- 98
2020-10-29 08:00:00 4.4 5 Noroeste 11 Noroeste 0 -- -- 97
2020-10-29 07:00:00 5.5 0 Calma 10 Sur 0 -- -- 97
2020-10-29 06:00:00 5.7 2 Oeste 9 Oeste 0 -- -- 96
2020-10-29 05:00:00 6.5 4 Noroeste 12 Noroeste 0 -- -- 95
2020-10-29 04:00:00 7.2 7 Noroeste 10 Norte 0 -- -- 94
2020-10-29 03:00:00 7.4 5 Noroeste 10 Oeste 0 -- -- 90
2020-10-29 02:00:00 8.6 4 Oeste 10 Oeste 0 -- -- 84
2020-10-29 01:00:00 8.5 3 Oeste 6 Oeste 0 -- -- 83
2020-10-29 00:00:00 9 4 Oeste 9 Oeste 0 -- -- 81
2020-10-28 23:00:00 9.1 8 Oeste 13 Oeste 0 -- -- 80
2020-10-28 22:00:00 8.4 2 Norte 10 Oeste 0 -- -- 85
2020-10-28 21:00:00 9 5 Noroeste 12 Noroeste 0 -- -- 83
2020-10-28 20:00:00 9.8 11 Oeste 23 Noroeste 0 -- -- 80
2020-10-28 19:00:00 10.7 15 Oeste 24 Oeste 0 -- -- 75
2020-10-28 18:00:00 12.2 16 Oeste 27 Oeste 0 -- -- 67
2020-10-28 17:00:00 13.9 13 Oeste 26 Oeste 0 -- -- 57
2020-10-28 16:00:00 15.3 13 Oeste 25 Noroeste 0 -- -- 54
2020-10-28 15:00:00 15.8 15 Noroeste 26 Oeste 0 -- -- 53
2020-10-28 14:00:00 16.5 12 Noroeste 25 Noroeste 0 -- -- 53
2020-10-28 13:00:00 16.1 14 Noroeste 25 Norte 0 -- -- 55
2020-10-28 12:00:00 16 12 Norte 33 Noroeste 0 -- -- 58
2020-10-28 11:00:00 14.5 8 Sudeste 12 Sudeste 0 -- -- 62
2020-10-28 10:00:00 11.8 3 Este 6 Este 0 -- -- 74
2020-10-28 09:00:00 8.6 6 Norte 11 Oeste 0 -- -- 86
2020-10-28 08:00:00 6.1 5 Norte 10 Noroeste 0 -- -- 91
2020-10-28 07:00:00 6.7 5 Norte 21 Oeste 0 -- -- 87
2020-10-28 06:00:00 7.7 15 Noroeste 22 Oeste 0 -- -- 87
2020-10-28 05:00:00 6.1 7 Norte 22 Noroeste 0 -- -- 86
2020-10-28 04:00:00 6.5 19 Noroeste 27 Noroeste 0 -- -- 86
2020-10-28 03:00:00 6.1 6 Norte 23 Noroeste 0 -- -- 81
2020-10-28 02:00:00 7.7 19 Noroeste 31 Noroeste 0 -- -- 77
2020-10-28 01:00:00 6.9 15 Noroeste 29 Noroeste 0 -- -- 76
2020-10-28 00:00:00 5.8 15 Noroeste 27 Oeste 0 -- -- 77
2020-10-27 23:00:00 5 14 Noroeste 16 Noroeste 0 -- -- 79
2020-10-27 22:00:00 4.9 6 Noroeste 9 Noroeste 0 -- -- 79
2020-10-27 21:00:00 5.7 2 Noroeste 16 Norte 0 -- -- 74
2020-10-27 20:00:00 6.1 12 Noroeste 28 Oeste 0 -- -- 70
2020-10-27 19:00:00 8.2 22 Oeste 33 Oeste 0 -- -- 60
2020-10-27 18:00:00 9.3 18 Oeste 28 Noroeste 0 -- -- 56
2020-10-27 17:00:00 11.2 16 Noroeste 26 Noroeste 0 -- -- 50
2020-10-27 16:00:00 12.5 15 Noroeste 28 Noroeste 0 -- -- 45
2020-10-27 15:00:00 12.6 18 Noroeste 29 Oeste 0 -- -- 45
2020-10-27 14:00:00 11.6 13 Norte 24 Noroeste 0 -- -- 44
2020-10-27 13:00:00 9.7 14 Noroeste 30 Noroeste 0 -- -- 42
2020-10-27 12:00:00 9.4 18 Noroeste 30 Oeste 0 -- -- 46
2020-10-27 11:00:00 6.7 13 Noroeste 30 Noroeste 0 -- -- 60
2020-10-27 10:00:00 5.8 18 Noroeste 36 Noroeste 0 -- -- 64
2020-10-27 09:00:00 3.2 18 Noroeste 37 Noroeste 0 -- -- 76
2020-10-27 08:00:00 2.1 24 Noroeste 33 Noroeste 0 -- -- 80
2020-10-27 07:00:00 1.9 11 Norte 37 Noroeste 0 -- -- 78
2020-10-27 06:00:00 2.1 19 Noroeste 37 Noroeste 0 -- -- 78
2020-10-27 05:00:00 1.9 18 Noroeste 37 Noroeste 0 -- -- 80
2020-10-27 04:00:00 1.7 21 Noroeste 35 Noroeste 0 -- -- 80
2020-10-27 03:00:00 1.4 12 Noroeste 21 Noroeste 0 -- -- 81
2020-10-27 02:00:00 1.5 9 Noroeste 31 Noroeste 0 -- -- 77
2020-10-27 01:00:00 2.9 15 Noroeste 33 Noroeste 0 -- -- 72
2020-10-27 00:00:00 2.2 13 Noroeste 41 Noroeste 0 -- -- 69
2020-10-26 23:00:00 2.8 30 Noroeste 42 Noroeste 0 -- -- 71
2020-10-26 22:00:00 2.9 31 Noroeste 41 Noroeste 0 -- -- 72
2020-10-26 21:00:00 3 24 Noroeste 36 Noroeste 0 -- -- 74
2020-10-26 20:00:00 3.2 13 Noroeste 27 Noroeste 0 -- -- 74
2020-10-26 19:00:00 3.8 15 Noroeste 32 Noroeste 0 -- -- 70
2020-10-26 18:00:00 4.8 18 Noroeste 39 Noroeste 0 -- -- 65
2020-10-26 17:00:00 6.3 26 Noroeste 41 Noroeste 0 -- -- 56
2020-10-26 16:00:00 6.9 26 Noroeste 43 Noroeste 0 -- -- 54
2020-10-26 15:00:00 6.8 32 Noroeste 49 Norte 0 -- -- 56
2020-10-26 14:00:00 6.7 30 Noroeste 50 Noroeste 0 -- -- 60
2020-10-26 13:00:00 6.4 32 Noroeste 48 Norte 0 -- -- 62
2020-10-26 12:00:00 5.5 29 Noroeste 51 Noroeste 0 -- -- 67
2020-10-26 11:00:00 4.1 31 Noroeste 44 Noroeste 0 -- -- 75
2020-10-26 10:00:00 2.9 23 Noroeste 49 Noroeste 0 -- -- 79
2020-10-26 09:00:00 2.9 31 Noroeste 43 Noroeste 0 -- -- 80
2020-10-26 08:00:00 1.8 24 Noroeste 40 Noroeste 0.2 -- -- 88
2020-10-26 07:00:00 2.1 15 Noroeste 30 Noroeste 0 -- -- 86
2020-10-26 06:00:00 2.1 22 Noroeste 35 Noroeste 0 -- -- 87
2020-10-26 05:00:00 2.2 21 Noroeste 33 Noroeste 0 -- -- 85
2020-10-26 04:00:00 3.3 19 Noroeste 33 Noroeste 0 -- -- 87
2020-10-26 03:00:00 3.7 22 Noroeste 43 Noroeste 0.2 -- -- 85
2020-10-26 02:00:00 5.8 17 Noroeste 33 Noroeste 0.4 -- -- 90
2020-10-26 01:00:00 6.5 19 Noroeste 33 Noroeste 0.4 -- -- 87
2020-10-26 00:00:00 6.7 27 Noroeste 48 Noroeste 0.4 -- -- 87